• In Spain
  • List of Countries
  • For 7 days
  • Water Temperature
  • Satellite Maps
  • Weather Map
  • Weather Widgets
  • user-avatar
    Login

    Hourly Weather Mishkovo

    Today, 18 June, Monday

    Time Temperature Precipitation Wind Pressure Humidity
    00:00 +16°C° 0 mm 2 mps 742 mmHg 83%
    01:00 +15°C° 0 mm 2 mps 742 mmHg 85%
    02:00 +16°C° 0 mm 1 mps 742 mmHg 83%
    03:00 +16°C° 0 mm 1 mps 742 mmHg 83%
    04:00 +16°C° 0 mm 1 mps 742 mmHg 83%
    05:00 +18°C° 0 mm 1 mps 742 mmHg 83%
    06:00 +18°C° 0 mm 2 mps 742 mmHg 80%
    07:00 +19°C° 0 mm 2 mps 742 mmHg 77%
    08:00 +20°C° 0 mm 2 mps 742 mmHg 72%
    09:00 +23°C° 0.1 mm 2 mps 741 mmHg 68%
    10:00 +24°C° 0.1 mm 2 mps 741 mmHg 65%
    11:00 +25°C° 0.1 mm 2 mps 741 mmHg 61%
    12:00 +25°C° 0.5 mm 2 mps 741 mmHg 62%
    13:00 +25°C° 0.5 mm 2 mps 741 mmHg 63%
    14:00 +26°C° 0.5 mm 2 mps 741 mmHg 64%
    15:00 +25°C° 0.9 mm 2 mps 741 mmHg 67%
    16:00 +25°C° 0.9 mm 2 mps 740 mmHg 70%
    17:00 +25°C° 0.9 mm 1 mps 740 mmHg 73%
    18:00 +23°C° 0.2 mm 1 mps 740 mmHg 78%
    19:00 +22°C° 0.2 mm 1 mps 740 mmHg 83%
    20:00 +20°C° 0.2 mm 1 mps 740 mmHg 87%
    21:00 +19°C° 0 mm 1 mps 740 mmHg 89%
    22:00 +18°C° 0 mm 1 mps 739 mmHg 91%
    23:00 +18°C° 0 mm 1 mps 739 mmHg 92%

    Tomorrow, 19 June, Tuesday

    Time Temperature Precipitation Wind Pressure Humidity
    00:00 +16°C° 0 mm 1 mps 739 mmHg 92%
    01:00 +16°C° 0 mm 1 mps 739 mmHg 91%
    02:00 +16°C° 0 mm 1 mps 739 mmHg 91%
    03:00 +16°C° 0 mm 1 mps 739 mmHg 91%
    04:00 +16°C° 0 mm 1 mps 739 mmHg 91%
    05:00 +18°C° 0 mm 1 mps 739 mmHg 91%
    06:00 +19°C° 0 mm 1 mps 739 mmHg 84%
    07:00 +20°C° 0 mm 2 mps 740 mmHg 77%
    08:00 +23°C° 0 mm 2 mps 740 mmHg 70%
    09:00 +23°C° 0.4 mm 2 mps 739 mmHg 68%
    10:00 +24°C° 0.4 mm 3 mps 739 mmHg 65%
    11:00 +24°C° 0.4 mm 3 mps 739 mmHg 62%
    12:00 +25°C° 0.2 mm 4 mps 739 mmHg 57%
    13:00 +26°C° 0.2 mm 4 mps 738 mmHg 51%
    14:00 +26°C° 0.2 mm 5 mps 738 mmHg 46%
    15:00 +26°C° 0 mm 5 mps 738 mmHg 47%
    16:00 +25°C° 0 mm 5 mps 738 mmHg 48%
    17:00 +25°C° 0 mm 5 mps 737 mmHg 49%
    18:00 +22°C° 0 mm 4 mps 737 mmHg 57%
    19:00 +20°C° 0 mm 4 mps 737 mmHg 64%
    20:00 +19°C° 0 mm 3 mps 737 mmHg 72%
    21:00 +18°C° 0 mm 3 mps 737 mmHg 76%
    22:00 +17°C° 0 mm 4 mps 737 mmHg 80%
    23:00 +15°C° 0 mm 4 mps 737 mmHg 84%

    Day after tomorrow, 20 June, Wednesday

    Time Temperature Precipitation Wind Pressure Humidity
    00:00 +14°C° 0 mm 4 mps 738 mmHg 86%
    01:00 +13°C° 0 mm 3 mps 738 mmHg 87%
    02:00 +12°C° 0 mm 3 mps 738 mmHg 89%
    03:00 +12°C° 0 mm 3 mps 738 mmHg 88%
    04:00 +12°C° 0 mm 3 mps 739 mmHg 87%
    05:00 +11°C° 0 mm 3 mps 739 mmHg 86%
    06:00 +13°C° 0 mm 4 mps 739 mmHg 75%
    07:00 +15°C° 0 mm 4 mps 739 mmHg 64%
    08:00 +18°C° 0 mm 4 mps 739 mmHg 54%
    09:00 +19°C° 0 mm 5 mps 739 mmHg 50%
    10:00 +20°C° 0 mm 5 mps 739 mmHg 46%
    11:00 +21°C° 0 mm 5 mps 739 mmHg 42%
    12:00 +22°C° 0 mm 6 mps 739 mmHg 42%
    13:00 +22°C° 0 mm 6 mps 739 mmHg 41%
    14:00 +23°C° 0 mm 6 mps 739 mmHg 40%
    15:00 +22°C° 0 mm 6 mps 739 mmHg 42%
    16:00 +22°C° 0 mm 5 mps 739 mmHg 44%
    17:00 +21°C° 0 mm 5 mps 739 mmHg 45%
    18:00 +20°C° 0 mm 4 mps 739 mmHg 52%
    19:00 +18°C° 0 mm 3 mps 739 mmHg 60%
    20:00 +17°C° 0 mm 2 mps 739 mmHg 67%
    21:00 +15°C° 0 mm 2 mps 739 mmHg 69%
    22:00 +14°C° 0 mm 2 mps 739 mmHg 72%
    23:00 +13°C° 0 mm 2 mps 739 mmHg 74%

    21 June, Thursday

    Time Temperature Precipitation Wind Pressure Humidity
    00:00 +12°C° 0 mm 2 mps 739 mmHg 75%
    01:00 +10°C° 0 mm 2 mps 739 mmHg 76%
    02:00 +10°C° 0 mm 2 mps 739 mmHg 78%
    03:00 +10°C° 0 mm 2 mps 739 mmHg 76%
    04:00 +12°C° 0 mm 2 mps 739 mmHg 74%
    05:00 +12°C° 0 mm 2 mps 739 mmHg 73%
    06:00 +13°C° 0 mm 3 mps 739 mmHg 69%
    07:00 +14°C° 0 mm 3 mps 739 mmHg 65%
    08:00 +17°C° 0 mm 3 mps 739 mmHg 61%
    09:00 +17°C° 0.1 mm 3 mps 739 mmHg 63%
    10:00 +18°C° 0.1 mm 3 mps 739 mmHg 66%
    11:00 +18°C° 0.1 mm 3 mps 738 mmHg 68%
    12:00 +19°C° 0.1 mm 3 mps 738 mmHg 71%
    13:00 +19°C° 0.1 mm 3 mps 738 mmHg 74%
    14:00 +19°C° 0.1 mm 3 mps 738 mmHg 76%
    15:00 +20°C° 0.2 mm 3 mps 738 mmHg 74%
    16:00 +21°C° 0.2 mm 3 mps 738 mmHg 71%
    17:00 +22°C° 0.2 mm 3 mps 737 mmHg 69%
    18:00 +21°C° 0.1 mm 2 mps 737 mmHg 75%
    19:00 +20°C° 0.1 mm 2 mps 737 mmHg 81%
    20:00 +19°C° 0.1 mm 2 mps 737 mmHg 87%
    21:00 +18°C° 0 mm 2 mps 737 mmHg 90%
    22:00 +17°C° 0 mm 2 mps 737 mmHg 93%
    23:00 +16°C° 0 mm 2 mps 736 mmHg 96%

    22 June, Friday

    Time Temperature Precipitation Wind Pressure Humidity
    00:00 +16°C° 0 mm 3 mps 736 mmHg 95%
    01:00 +16°C° 0 mm 3 mps 736 mmHg 95%
    02:00 +16°C° 0 mm 3 mps 735 mmHg 94%
    03:00 +17°C° 0 mm 4 mps 735 mmHg 91%
    04:00 +17°C° 0 mm 4 mps 735 mmHg 89%
    05:00 +17°C° 0 mm 4 mps 734 mmHg 86%
    06:00 +19°C° 0 mm 5 mps 734 mmHg 79%
    07:00 +21°C° 0 mm 6 mps 733 mmHg 71%
    08:00 +23°C° 0 mm 6 mps 733 mmHg 64%
    09:00 +23°C° 0.3 mm 6 mps 733 mmHg 68%
    10:00 +23°C° 0.3 mm 6 mps 732 mmHg 72%
    11:00 +23°C° 0.3 mm 6 mps 732 mmHg 76%
    12:00 +23°C° 0.9 mm 6 mps 732 mmHg 80%
    13:00 +23°C° 0.9 mm 6 mps 732 mmHg 83%
    14:00 +23°C° 0.9 mm 5 mps 732 mmHg 87%
    15:00 +22°C° 1.3 mm 5 mps 732 mmHg 89%
    16:00 +22°C° 1.3 mm 5 mps 732 mmHg 91%
    17:00 +21°C° 1.3 mm 4 mps 732 mmHg 93%
    18:00 +20°C° 0.6 mm 3 mps 732 mmHg 93%
    19:00 +20°C° 0.6 mm 3 mps 732 mmHg 94%
    20:00 +19°C° 0.6 mm 2 mps 732 mmHg 94%
    21:00 +18°C° 0.9 mm 2 mps 733 mmHg 94%
    22:00 +18°C° 0.9 mm 1 mps 733 mmHg 94%
    23:00 +18°C° 0.9 mm 1 mps 733 mmHg 95%

    23 June, Saturday

    Time Temperature Precipitation Wind Pressure Humidity
    00:00 +16°C° 1.3 mm 1 mps 733 mmHg 95%
    01:00 +15°C° 1.3 mm 1 mps 733 mmHg 95%
    02:00 +15°C° 1.3 mm 1 mps 733 mmHg 95%
    03:00 +14°C° 1.1 mm 1 mps 734 mmHg 96%
    04:00 +14°C° 1.1 mm 2 mps 734 mmHg 96%
    05:00 +13°C° 1.1 mm 2 mps 734 mmHg 97%
    06:00 +13°C° 1.3 mm 2 mps 734 mmHg 97%
    07:00 +13°C° 1.3 mm 2 mps 734 mmHg 96%
    08:00 +13°C° 1.3 mm 2 mps 735 mmHg 96%
    09:00 +13°C° 0.4 mm 2 mps 735 mmHg 93%
    10:00 +14°C° 0.4 mm 2 mps 735 mmHg 90%
    11:00 +14°C° 0.4 mm 2 mps 735 mmHg 86%
    12:00 +15°C° 0 mm 2 mps 735 mmHg 82%
    13:00 +16°C° 0 mm 2 mps 736 mmHg 78%
    14:00 +16°C° 0 mm 2 mps 736 mmHg 74%
    15:00 +17°C° 0 mm 2 mps 736 mmHg 71%
    16:00 +17°C° 0 mm 2 mps 736 mmHg 69%
    17:00 +18°C° 0 mm 2 mps 736 mmHg 66%
    18:00 +17°C° 0 mm 2 mps 736 mmHg 72%
    19:00 +16°C° 0 mm 2 mps 736 mmHg 77%
    20:00 +15°C° 0 mm 2 mps 736 mmHg 83%
    21:00 +14°C° 0 mm 2 mps 736 mmHg 86%
    22:00 +12°C° 0 mm 2 mps 736 mmHg 90%
    23:00 +10°C° 0 mm 2 mps 737 mmHg 93%
    Show more